Wind_Speed
16 15 13 11 9 9 11 12 12 12 12 12 12 13 13 12 12 11 12 11 10 9 9 10 11 11 11 12 11 11 10 10 10 11 10 10 11 11 11 12 13 14
16 16 14 12 10 9 11 13 14 13 13 13 13 12 13 12 11 11 12 12 11 10 10 11 11 12 13 12 11 10 9 9 9 9 9 9 10 11 11 12 12 12
17 16 15 13 11 10 10 12 14 15 14 13 13 12 12 12 11 10 11 12 12 10 11 11 12 13 13 13 12 10 9 9 9 9 9 9 9 10 10 11 11 11
18 17 16 13 12 11 11 12 14 15 14 14 13 12 12 11 11 10 9 11 12 11 12 13 13 13 13 12 11 10 9 9 10 10 9 9 9 9 10 10 10 10
18 18 16 13 12 12 12 12 12 13 14 14 13 12 11 11 11 10 8 10 11 11 12 13 13 12 11 10 10 10 9 9 10 10 10 10 10 10 10 10 11 11
18 19 17 14 14 14 13 13 13 12 13 14 13 11 11 11 10 9 8 9 11 11 11 12 12 11 10 9 8 9 9 9 10 10 10 11 10 11 11 11 12 11
19 19 18 16 15 16 15 14 13 12 12 13 12 11 11 10 9 8 8 8 9 9 9 10 9 9 9 8 8 9 9 10 10 11 11 11 11 11 11 11 10 10
18 17 17 16 16 17 16 15 14 12 12 13 12 11 10 9 8 8 8 8 8 8 8 8 8 7 7 7 7 8 9 10 10 10 10 10 10 9 9 8 8 7
17 17 16 16 16 17 17 16 14 13 12 12 11 10 10 9 7 7 7 7 7 7 7 8 8 7 7 7 7 7 8 8 8 8 8 8 7 7 6 6 6 6
17 16 16 16 16 17 17 16 14 13 12 11 10 10 9 8 7 6 6 6 6 6 6 7 7 7 7 6 6 7 6 7 7 7 7 6 6 5 5 5 5 5
16 16 16 15 17 17 17 16 14 13 12 11 10 9 9 8 7 6 6 6 6 6 6 6 7 6 6 6 6 6 6 6 6 6 5 5 5 4 4 4 4 4
16 15 15 16 17 18 18 17 15 13 12 11 10 9 8 7 7 6 6 6 6 5 5 6 6 6 6 6 6 6 6 6 6 5 5 4 4 4 4 4 4 4
16 14 15 16 17 18 19 18 15 13 12 11 10 9 8 7 7 6 6 6 5 5 5 5 5 6 6 5 5 5 6 6 5 5 4 4 4 4 4 4 4 4
15 13 14 16 17 19 20 19 16 13 11 11 10 9 8 7 6 6 6 5 5 5 5 5 6 6 5 5 5 5 5 5 5 4 4 3 3 4 4 4 4 5
15 13 14 15 17 19 20 20 18 14 11 11 10 9 8 6 6 6 5 5 5 5 5 6 6 6 5 5 4 4 4 4 4 4 3 3 4 4 4 4 4 3
15 14 14 15 17 19 20 21 19 15 12 11 10 9 7 6 6 5 5 6 6 6 6 6 6 5 5 4 4 4 4 4 4 4 4 4 4 4 4 3 2 2
16 15 15 16 18 19 20 21 20 17 13 11 10 9 7 6 6 6 6 6 6 6 6 6 6 5 4 4 4 4 4 4 5 5 5 4 4 3 3 2 1 1
16 16 16 17 18 19 20 20 20 18 14 11 10 9 8 6 6 6 6 6 6 6 6 6 6 5 5 4 4 5 5 5 5 6 5 4 4 3 2 1 1 1
16 17 17 19 19 19 20 20 20 19 15 12 11 10 9 7 6 6 7 7 7 6 5 5 5 5 5 5 5 6 6 5 6 6 5 4 3 2 2 2 2 2
16 17 18 19 20 19 19 20 20 19 16 12 11 11 10 8 7 6 7 7 7 6 5 5 5 5 6 6 6 6 6 6 6 5 5 4 3 3 2 3 3 3
16 17 18 18 18 18 19 20 19 19 17 14 12 11 10 9 7 7 7 7 7 6 6 5 5 6 6 6 6 6 6 6 6 5 4 4 3 3 3 3 3 3
16 17 17 17 17 18 19 20 19 19 18 15 12 12 11 10 8 7 7 7 7 7 6 6 6 6 6 6 6 6 6 6 6 5 4 4 4 4 4 4 4 4
17 18 18 18 18 18 18 19 19 19 19 17 14 12 11 10 9 8 7 7 7 7 6 6 6 6 6 6 6 6 6 6 6 6 5 5 5 5 5 5 5 5
18 18 18 18 18 18 18 19 19 19 19 18 15 13 12 11 10 9 8 7 7 7 6 6 6 6 6 6 5 5 5 6 6 6 6 6 5 5 6 6 5 5
19 19 19 19 18 18 18 19 19 19 20 19 17 14 13 12 11 10 9 8 7 7 6 6 6 6 6 6 5 5 5 5 6 6 6 6 6 6 6 6 6 6
19 20 20 19 19 19 18 19 19 19 20 20 18 16 15 13 12 11 10 9 8 8 7 6 6 5 5 5 5 5 5 5 6 6 6 6 6 6 6 6 6 6
Wind_Direction
341 335 327 326 320 293 276 278 284 291 301 310 319 327 330 323 317 311 305 299 295 293 291 290 288 288 288 288 288 291 292 289 284 278 275 274 273 272 271 268 266 267
339 336 326 318 314 299 281 274 275 280 288 297 307 318 323 320 313 305 301 298 295 290 288 286 284 282 283 287 290 291 291 290 285 279 277 276 274 272 270 267 266 266
336 336 330 320 312 304 290 277 273 274 279 287 297 308 314 314 310 303 298 296 295 288 282 283 283 281 280 283 286 288 287 284 281 280 279 277 274 271 270 269 269 270
334 338 336 330 321 315 303 288 279 275 276 281 288 297 306 307 305 303 296 292 294 290 283 281 281 280 279 278 281 284 284 280 279 280 280 279 278 276 275 273 274 274
333 338 340 340 335 329 317 304 292 280 275 276 281 288 298 301 301 304 300 292 294 295 291 286 281 280 280 277 278 281 279 274 274 276 277 278 279 279 280 280 278 277
332 335 339 344 344 339 329 317 305 290 278 275 278 284 291 295 298 301 299 295 299 303 302 296 288 286 286 282 280 281 280 278 277 278 279 280 280 280 280 281 281 281
330 332 336 343 345 342 338 326 312 299 282 274 275 280 286 292 296 297 295 298 306 311 311 306 299 295 291 286 280 278 279 280 280 281 281 280 280 278 279 281 283 283
325 327 331 339 344 344 341 331 318 305 288 276 275 278 281 287 289 288 292 299 307 313 312 310 310 308 298 290 284 279 279 280 281 282 281 279 277 276 279 282 282 282
321 323 327 336 344 346 342 335 322 308 292 280 277 277 278 281 282 280 286 294 300 308 312 311 314 313 307 302 295 289 286 285 286 287 284 283 281 280 283 285 283 283
317 320 327 336 344 346 345 338 324 309 297 286 279 277 275 276 277 274 279 285 290 300 307 310 310 311 312 311 307 303 300 296 294 292 290 289 290 291 291 287 285 282
313 317 326 337 343 346 348 341 327 311 300 290 281 277 275 275 272 269 273 277 284 293 300 302 305 309 312 313 312 311 307 303 298 294 294 295 297 297 293 289 285 282
309 314 324 334 341 345 349 345 331 315 301 292 285 279 275 273 269 267 272 275 281 290 294 298 305 310 312 313 312 311 308 304 300 298 298 299 297 294 290 290 289 290
303 310 321 331 338 344 348 347 335 319 305 294 286 279 273 270 269 269 273 277 283 292 299 304 307 309 311 312 311 307 303 300 298 299 300 300 298 295 294 292 294 298
298 306 317 326 334 340 346 347 339 322 308 296 286 278 273 270 270 272 275 281 291 301 308 307 306 306 308 307 305 300 298 297 298 300 299 298 296 294 293 295 297 298
293 301 313 322 329 335 342 346 341 327 311 300 289 281 276 273 273 276 282 292 302 309 310 305 303 304 302 300 299 298 300 300 301 302 300 295 292 293 294 296 296 295
291 298 310 318 324 330 336 342 341 331 315 303 293 284 279 276 276 282 291 300 307 309 307 303 300 299 297 297 299 302 303 305 305 304 302 297 295 296 297 296 294 292
291 295 304 312 318 324 329 336 340 334 319 306 296 287 281 278 281 290 297 303 306 306 304 303 299 296 298 299 301 302 302 306 309 307 305 303 300 295 293 291 294 301
290 294 300 306 311 316 322 329 337 336 322 307 297 287 280 280 283 291 299 301 304 305 305 303 298 297 299 299 300 301 302 307 310 309 307 305 299 293 294 304 315 339
290 293 298 301 303 308 314 321 331 334 324 306 295 286 278 278 282 289 298 301 302 303 304 301 297 295 294 294 296 297 300 305 309 307 305 303 299 299 302 312 325 345
290 294 300 301 299 300 306 314 323 330 324 307 293 286 278 276 281 288 295 300 302 302 302 299 293 290 289 290 293 294 298 304 304 303 301 299 297 299 306 317 328 341
289 293 301 302 297 295 299 306 315 324 324 311 292 284 278 274 278 287 295 301 303 302 300 296 289 286 286 287 289 294 298 301 301 297 293 293 294 295 302 312 321 330
290 293 300 303 298 292 293 299 307 317 322 314 294 282 278 273 275 283 291 298 303 302 299 294 286 283 284 286 289 294 298 299 296 290 284 285 289 292 297 305 311 316
291 293 298 301 298 292 290 294 302 311 318 315 298 282 276 273 272 278 286 294 300 299 296 290 284 280 282 284 289 293 297 297 292 285 281 281 285 289 294 298 299 298
290 291 294 296 298 294 289 290 297 305 313 314 302 285 276 272 270 271 281 289 293 294 291 286 280 277 278 282 286 290 295 295 290 284 281 280 283 286 288 289 287 286
285 287 288 291 295 294 289 287 292 300 308 311 305 289 276 271 269 268 275 283 288 290 287 280 275 272 272 276 280 285 289 289 287 283 279 279 280 280 281 281 280 281
280 283 286 287 288 290 288 285 288 296 302 306 304 293 278 271 269 267 269 276 282 284 283 278 272 267 266 268 272 277 283 285 284 281 278 277 275 273 274 275 276 277
Height
3136 3135 3134 3133 3132 3131 3130 3130 3130 3129 3129 3128 3128 3127 3127 3126 3125 3124 3124 3123 3123 3123 3122 3122 3121 3121 3121 3121 3121 3121 3121 3121 3122 3122 3122 3122 3122 3122 3122 3123 3123 3123
3135 3134 3133 3132 3131 3130 3129 3129 3128 3128 3128 3127 3127 3127 3126 3125 3124 3124 3123 3122 3122 3122 3121 3121 3121 3120 3120 3120 3120 3121 3121 3121 3121 3121 3121 3121 3121 3121 3122 3122 3122 3123
3134 3133 3131 3130 3129 3129 3128 3127 3127 3126 3126 3126 3126 3126 3125 3124 3123 3123 3122 3121 3121 3121 3120 3120 3120 3119 3119 3119 3120 3120 3120 3120 3120 3120 3120 3120 3121 3121 3121 3121 3122 3122
3132 3131 3130 3129 3128 3127 3126 3126 3125 3125 3125 3125 3125 3124 3124 3123 3122 3121 3121 3120 3120 3120 3119 3119 3119 3118 3118 3118 3119 3119 3119 3119 3119 3119 3119 3119 3120 3120 3120 3121 3121 3121
3131 3130 3129 3127 3126 3126 3125 3124 3124 3124 3123 3123 3123 3123 3122 3122 3121 3120 3120 3119 3118 3118 3118 3117 3117 3117 3117 3117 3118 3118 3118 3118 3118 3118 3119 3119 3119 3119 3119 3120 3120 3120
3129 3128 3127 3126 3125 3124 3124 3123 3122 3122 3122 3122 3121 3121 3121 3120 3119 3119 3119 3118 3117 3117 3116 3116 3116 3116 3116 3116 3117 3117 3117 3117 3117 3118 3118 3118 3118 3118 3118 3118 3118 3119
3127 3126 3125 3125 3124 3123 3122 3122 3121 3121 3121 3120 3120 3120 3119 3119 3118 3118 3118 3117 3116 3116 3115 3115 3115 3115 3115 3115 3115 3116 3116 3116 3116 3116 3117 3116 3117 3117 3117 3117 3117 3117
3126 3125 3125 3124 3123 3122 3121 3121 3120 3120 3120 3119 3119 3119 3118 3118 3117 3117 3117 3116 3116 3115 3115 3114 3114 3114 3114 3114 3114 3115 3115 3115 3115 3115 3115 3115 3115 3116 3116 3116 3116 3116
3125 3124 3124 3123 3122 3121 3120 3120 3119 3119 3118 3118 3118 3117 3117 3117 3116 3116 3116 3115 3115 3115 3114 3114 3114 3114 3113 3113 3113 3114 3114 3114 3114 3114 3114 3114 3114 3115 3115 3115 3115 3115
3124 3123 3123 3122 3121 3121 3120 3119 3118 3118 3117 3117 3117 3116 3116 3116 3115 3115 3115 3115 3114 3114 3114 3114 3114 3113 3113 3113 3113 3113 3113 3113 3113 3113 3113 3113 3114 3114 3114 3114 3114 3115
3122 3122 3121 3121 3120 3119 3119 3118 3117 3117 3116 3116 3116 3115 3115 3115 3115 3114 3114 3114 3114 3114 3114 3114 3113 3113 3113 3113 3112 3112 3112 3112 3113 3113 3113 3113 3113 3113 3113 3113 3114 3114
3121 3120 3120 3120 3119 3118 3118 3117 3116 3116 3115 3115 3115 3114 3114 3114 3114 3113 3113 3113 3113 3113 3113 3113 3113 3113 3113 3113 3112 3112 3112 3112 3112 3112 3112 3113 3113 3113 3113 3113 3114 3114
3119 3119 3119 3118 3118 3117 3117 3116 3115 3115 3114 3114 3114 3113 3113 3113 3113 3113 3113 3113 3113 3113 3113 3113 3113 3113 3113 3113 3112 3112 3112 3112 3112 3112 3112 3112 3112 3113 3113 3113 3113 3113
3118 3118 3118 3117 3117 3116 3116 3115 3114 3114 3113 3113 3113 3113 3112 3112 3112 3112 3112 3112 3112 3112 3112 3113 3113 3112 3112 3112 3112 3112 3112 3112 3112 3112 3112 3112 3112 3112 3113 3113 3113 3113
3117 3117 3117 3117 3116 3116 3115 3114 3114 3113 3113 3112 3112 3112 3111 3111 3111 3111 3111 3111 3111 3112 3112 3112 3112 3112 3112 3112 3112 3111 3111 3111 3112 3112 3112 3112 3112 3112 3112 3112 3112 3112
3115 3116 3116 3115 3115 3115 3114 3114 3113 3112 3112 3112 3111 3111 3110 3110 3110 3110 3110 3110 3111 3111 3111 3111 3111 3111 3111 3111 3111 3111 3111 3111 3111 3111 3112 3112 3112 3112 3112 3112 3112 3112
3114 3114 3115 3114 3114 3114 3113 3113 3112 3111 3111 3111 3111 3110 3110 3109 3109 3109 3109 3110 3110 3110 3110 3110 3110 3110 3110 3110 3110 3110 3111 3111 3111 3111 3111 3111 3111 3111 3111 3111 3112 3112
3113 3113 3114 3113 3113 3113 3112 3112 3111 3111 3110 3110 3110 3110 3109 3109 3109 3109 3109 3109 3109 3109 3109 3109 3110 3110 3110 3110 3110 3110 3110 3110 3110 3110 3110 3110 3110 3111 3111 3111 3111 3111
3111 3112 3113 3113 3112 3112 3111 3111 3110 3110 3109 3109 3109 3109 3109 3108 3108 3108 3108 3108 3108 3109 3109 3109 3109 3109 3109 3109 3109 3109 3109 3109 3109 3109 3109 3109 3110 3110 3110 3110 3111 3111
3110 3110 3111 3111 3111 3111 3110 3110 3110 3109 3109 3108 3108 3108 3108 3107 3107 3107 3107 3108 3108 3108 3108 3108 3108 3108 3108 3108 3109 3109 3108 3108 3108 3108 3109 3109 3109 3109 3110 3110 3110 3110
3109 3109 3109 3110 3110 3109 3109 3109 3108 3108 3108 3107 3107 3107 3107 3107 3106 3106 3106 3107 3107 3107 3107 3107 3107 3108 3108 3108 3108 3108 3108 3108 3108 3108 3108 3108 3108 3109 3109 3109 3109 3110
3107 3107 3108 3108 3108 3108 3108 3107 3107 3107 3107 3106 3106 3106 3106 3106 3105 3105 3105 3106 3106 3106 3106 3106 3107 3107 3107 3107 3107 3107 3107 3107 3107 3107 3107 3107 3108 3108 3108 3109 3109 3109
3105 3106 3106 3106 3106 3106 3106 3106 3106 3105 3105 3105 3105 3104 3104 3104 3104 3104 3104 3105 3105 3105 3105 3105 3106 3106 3106 3106 3106 3106 3106 3106 3106 3107 3107 3107 3107 3107 3108 3108 3108 3109
3104 3104 3104 3105 3105 3105 3105 3104 3104 3104 3104 3103 3103 3103 3103 3103 3103 3103 3103 3103 3104 3104 3104 3104 3105 3105 3105 3105 3105 3105 3105 3106 3106 3106 3106 3106 3107 3107 3107 3108 3108 3108
3102 3102 3103 3103 3103 3103 3103 3103 3103 3102 3102 3102 3102 3101 3102 3102 3102 3102 3102 3102 3102 3103 3103 3103 3103 3104 3104 3104 3104 3105 3105 3105 3105 3105 3105 3106 3106 3106 3107 3107 3107 3108
3100 3100 3100 3101 3101 3101 3101 3101 3101 3101 3100 3100 3100 3100 3100 3100 3100 3100 3100 3100 3101 3101 3102 3102 3102 3103 3103 3103 3103 3104 3104 3104 3104 3104 3105 3105 3105 3106 3106 3106 3107 3107